Date String (YYYY-MM-DD hh:mm:ss) UTC,Instrument flags,Ambient pressure (hPa),Sample flow (lpm),Bypass flow (lpm),Sample temperature (°C),Ambient temperature (°C),ASC tube jacket temperature (°C),LED temperature (°C),Box temperature (°C),Sample RH (%),Span deviation,Mass concentration (μg/m³),Mass concentration (μg/m³),Mass concentration (μg/m³)
DateTimeUTC,F1_M11,P_M11,Q1_M11,Q2_M11,T1_M11,T2_M11,T3_M11,T4_M11,T5_M11,U1_M11,ZSPAN_M11,X0_M11,X2_M11,X1_M11
2021-10-25 12:00:00,,0822.6,5.00,0.00,27.2,26.4,00.0,36.3,29.0,13.2,0000.0,0012.91,0003.41,0002.33
2021-10-25 12:01:00,,0822.9,5.00,0.00,27.2,26.4,00.0,36.3,29.0,13.3,0000.0,0012.18,0003.39,0002.34
2021-10-25 12:02:00,,0822.8,4.99,0.00,27.2,26.3,00.0,36.3,29.0,13.3,0000.0,0011.97,0003.39,0002.35
2021-10-25 12:03:00,,0822.2,5.01,0.00,27.1,26.2,00.0,36.3,28.9,13.2,0000.0,0011.91,0003.45,0002.38
2021-10-25 12:04:00,,0821.7,4.99,0.00,27.1,26.2,00.0,36.3,28.8,13.2,0000.0,0011.35,0003.49,0002.38
2021-10-25 12:05:00,,0821.6,4.99,0.00,27.1,26.1,00.0,36.3,28.8,13.2,0000.0,0010.81,0003.54,0002.37
2021-10-25 12:06:00,,0821.8,5.00,0.00,27.0,26.1,00.0,36.3,28.8,13.2,0000.0,0011.35,0003.56,0002.38
2021-10-25 12:07:00,,0822.4,5.01,0.00,27.0,26.1,00.0,36.3,28.8,13.3,0000.0,0011.48,0003.56,0002.39
2021-10-25 12:08:00,,0822.8,5.01,0.00,27.0,26.1,00.0,36.2,28.7,13.3,0000.0,0011.09,0003.52,0002.37
2021-10-25 12:09:00,,0822.8,4.99,0.00,27.0,26.1,00.0,36.2,28.7,13.4,0000.0,0009.77,0003.52,0002.37
2021-10-25 12:10:00,,0822.6,5.02,0.00,27.0,26.1,00.0,36.2,28.8,13.3,0000.0,0009.43,0003.54,0002.35
2021-10-25 12:11:00,,0822.7,5.01,0.00,27.0,26.1,00.0,36.2,28.8,13.3,0000.0,0010.05,0003.56,0002.36
2021-10-25 12:12:00,,0822.6,4.98,0.00,27.0,26.1,00.0,36.2,28.8,13.3,0000.0,0010.57,0003.55,0002.34
2021-10-25 12:13:00,,0822.6,5.00,0.00,27.0,26.1,00.0,36.2,28.7,13.3,0000.0,0010.25,0003.56,0002.34
2021-10-25 12:14:00,,0822.6,5.00,0.00,27.0,26.1,00.0,36.2,28.7,13.4,0000.0,0010.08,0003.53,0002.33
2021-10-25 12:15:00,,0822.6,5.00,0.00,27.0,26.1,00.0,36.2,28.8,13.4,0000.0,0010.05,0003.52,0002.33
2021-10-25 12:16:00,,0822.6,4.99,0.00,27.0,26.1,00.0,36.2,28.8,13.4,0000.0,0009.94,0003.46,0002.35
2021-10-25 12:17:00,,0822.6,5.00,0.00,27.0,26.1,00.0,36.2,28.8,13.4,0000.0,0009.39,0003.47,0002.34
2021-10-25 12:18:00,,0822.6,5.00,0.00,27.0,26.1,00.0,36.2,28.8,13.4,0000.0,0009.09,0003.45,0002.34
2021-10-25 12:19:00,,0822.6,5.00,0.00,27.0,26.1,00.0,36.1,28.8,13.4,0000.0,0008.96,0003.50,0002.37
2021-10-25 12:20:00,,0822.4,5.00,0.00,27.0,26.1,00.0,36.1,28.8,13.4,0000.0,0009.40,0003.46,0002.38
2021-10-25 12:21:00,,0822.3,5.01,0.00,27.0,26.1,00.0,36.1,28.8,13.3,0000.0,0011.24,0003.47,0002.38
2021-10-25 12:22:00,,0822.4,5.01,0.00,27.0,26.1,00.0,36.1,28.8,13.3,0000.0,0010.79,0003.46,0002.38
2021-10-25 12:23:00,,0822.6,4.99,0.00,27.0,26.1,00.0,36.1,28.8,13.3,0000.0,0010.67,0003.45,0002.37
2021-10-25 12:24:00,,0822.6,5.00,0.00,27.0,26.1,00.0,36.1,28.8,13.3,0000.0,0011.36,0003.45,0002.36
2021-10-25 12:25:00,,0822.7,5.02,0.00,27.0,26.2,00.0,36.1,28.8,13.3,0000.0,0011.88,0003.44,0002.37
2021-10-25 12:26:00,,0822.6,4.98,0.00,27.0,26.2,00.0,36.1,28.8,13.3,0000.0,0013.50,0003.45,0002.36
2021-10-25 12:27:00,,0822.6,5.01,0.00,27.0,26.2,00.0,36.1,28.8,13.3,0000.0,0013.32,0003.44,0002.35
2021-10-25 12:28:00,,0822.6,4.99,0.00,27.0,26.2,00.0,36.1,28.8,13.3,0000.0,0014.10,0003.43,0002.35
2021-10-25 12:29:00,,0822.7,5.00,0.00,27.0,26.2,00.0,36.1,28.8,13.3,0000.0,0014.47,0003.44,0002.34
2021-10-25 12:30:00,,0822.8,5.01,0.00,27.1,26.2,00.0,36.1,28.8,13.3,0000.0,0014.33,0003.39,0002.31
2021-10-25 12:31:00,,0822.7,4.99,0.00,27.1,26.2,00.0,36.1,28.9,13.3,0000.0,0014.60,0003.40,0002.28
2021-10-25 12:32:00,,0822.6,5.01,0.00,27.0,26.2,00.0,36.1,28.9,13.3,0000.0,0013.29,0003.40,0002.27
2021-10-25 12:33:00,,0822.6,5.00,0.00,27.0,26.1,00.0,36.1,28.8,13.4,0000.0,0013.93,0003.40,0002.26
2021-10-25 12:34:00,,0822.7,4.99,0.00,27.0,26.1,00.0,36.1,28.7,13.4,0000.0,0013.88,0003.40,0002.26
2021-10-25 12:35:00,,0822.7,4.99,0.00,27.0,26.1,00.0,36.1,28.7,13.4,0000.0,0013.58,0003.41,0002.26
2021-10-25 12:36:00,,0822.7,5.00,0.00,27.0,26.1,00.0,36.1,28.7,13.3,0000.0,0013.45,0003.42,0002.26
2021-10-25 12:37:00,,0822.7,5.00,0.00,27.0,26.1,00.0,36.1,28.7,13.3,0000.0,0012.26,0003.37,0002.25
2021-10-25 12:38:00,,0822.7,5.01,0.00,27.0,26.1,00.0,36.1,28.7,13.3,0000.0,0012.61,0003.34,0002.24
2021-10-25 12:39:00,,0822.8,5.00,0.00,27.0,26.1,00.0,36.1,28.8,13.3,0000.0,0012.09,0003.33,0002.24
2021-10-25 12:40:00,,0822.8,5.00,0.00,27.0,26.1,00.0,36.1,28.7,13.3,0000.0,0011.89,0003.32,0002.26
2021-10-25 12:41:00,,0822.7,4.99,0.00,27.0,26.1,00.0,36.1,28.8,13.3,0000.0,0011.83,0003.30,0002.27
2021-10-25 12:42:00,,0822.7,4.99,0.00,27.0,26.1,00.0,36.1,28.8,13.3,0000.0,0011.15,0003.30,0002.28
2021-10-25 12:43:00,,0822.7,5.02,0.00,27.0,26.1,00.0,36.1,28.8,13.3,0000.0,0010.99,0003.28,0002.28
2021-10-25 12:44:00,,0822.8,5.00,0.00,27.0,26.1,00.0,36.1,28.8,13.3,0000.0,0011.21,0003.33,0002.28
2021-10-25 12:45:00,,0822.8,5.00,0.00,27.0,26.1,00.0,36.1,28.8,13.3,0000.0,0011.05,0003.35,0002.29
2021-10-25 12:46:00,,0822.7,5.00,0.00,27.0,26.1,00.0,36.1,28.8,13.3,0000.0,0010.84,0003.38,0002.29
2021-10-25 12:47:00,,0822.7,5.00,0.00,27.0,26.1,00.0,36.1,28.8,13.3,0000.0,0011.53,0003.35,0002.28
2021-10-25 12:48:00,,0822.7,5.00,0.00,26.9,26.1,00.0,36.1,28.7,13.3,0000.0,0011.50,0003.37,0002.28
2021-10-25 12:49:00,,0822.7,5.01,0.00,26.9,26.0,00.0,36.1,28.7,13.3,0000.0,0011.84,0003.42,0002.27
2021-10-25 12:50:00,,0822.7,5.01,0.00,26.9,26.0,00.0,36.1,28.7,13.3,0000.0,0012.20,0003.42,0002.26
2021-10-25 12:51:00,,0822.7,5.01,0.00,26.9,26.0,00.0,36.1,28.7,13.3,0000.0,0012.31,0003.43,0002.25
2021-10-25 12:52:00,,0822.7,5.00,0.00,26.9,26.0,00.0,36.1,28.6,13.3,0000.0,0012.66,0003.43,0002.24
2021-10-25 12:53:00,,0822.6,4.99,0.00,26.9,25.9,00.0,36.0,28.6,13.3,0000.0,0013.35,0003.44,0002.23
2021-10-25 12:54:00,,0822.7,5.00,0.00,26.9,25.9,00.0,36.0,28.6,13.3,0000.0,0013.59,0003.43,0002.23
2021-10-25 12:55:00,,0822.7,5.00,0.00,26.9,26.0,00.0,36.0,28.6,13.3,0000.0,0012.85,0003.40,0002.23
2021-10-25 12:56:00,,0822.7,5.00,0.00,26.9,26.0,00.0,36.0,28.7,13.3,0000.0,0012.98,0003.41,0002.22
2021-10-25 12:57:00,,0822.7,4.99,0.00,26.9,25.9,00.0,36.0,28.6,13.3,0000.0,0012.92,0003.39,0002.23
2021-10-25 12:58:00,,0822.7,4.99,0.00,26.8,25.9,00.0,36.0,28.6,13.3,0000.0,0011.81,0003.40,0002.22
2021-10-25 12:59:00,,0822.7,5.01,0.00,26.8,25.8,00.0,36.0,28.5,13.4,0000.0,0011.33,0003.40,0002.23
